[[{"header":{"parameterUnit":"m.s-1","parameterCategory":1,"la1":30.2991,"la2":30.254,"lo1":-89.0895,"lo2":-89.0444,"dy":0.0017,"dx":0.0017,"nx":28,"ny":28,"refTime":"2023-08-18T09:00:00:Z","depth":0,"parameterNumber":2,"parameterNumberName":"U-component_of_WINDS"},"data":[0,0,0,0,0,0,0,0,0,0,0,0,0,0,0,0,0,0,0,0,0,0,0,0,0,0,0,0,0,0,0,0,0,0,0,0,0,0,0,0,0,0,0,0,0,0,0,0,0,0,0,0,0,0,0,0,0,0,1.7167,1.7167,0,1.7228,1.7229,1.7229,1.7188,1.7186,1.7185,1.7183,1.7247,1.7251,1.7254,0,0,0,0,0,0,0,0,0,0,0,0,0,1.7014,1.7017,1.7167,1.7167,1.7168,1.7228,1.7229,1.723,1.7189,1.7186,1.7184,1.7182,1.7246,1.725,1.7254,0,0,0,0,0,0,0,0,0,0,0,0,0,1.7078,1.7018,1.7166,1.7155,1.7154,1.7228,1.7229,1.723,1.7189,1.7186,1.7183,1.7181,1.7245,1.725,1.7255,1.7344,0,0,1.7271,1.7273,0,0,0,0,0,0,0,0,1.7075,1.7084,1.7156,1.7156,1.7155,1.7198,1.7198,1.7268,1.719,1.7176,1.7183,1.7179,1.7233,1.7239,1.7257,1.7347,1.7349,1.7271,1.7275,1.7277,1.7278,0,0,0,0,0,0,0,1.707,1.7081,1.7191,1.7157,1.7157,1.7146,1.7153,1.7211,1.722,1.7177,1.7174,1.7182,1.7233,1.7252,1.7258,1.735,1.7271,1.7276,1.7279,1.7281,1.7513,1.7516,0,0,0,0,0,0,1.7067,1.7077,1.7189,1.7193,1.7107,1.7152,1.7158,1.7187,1.7219,1.7221,1.7184,1.718,1.7244,1.7252,1.726,1.7364,1.7277,1.7282,1.7285,1.751,1.7514,1.7517,0,0,0,0,0,0,1.7063,1.7077,1.7186,1.7134,1.7147,1.7157,1.719,1.719,1.7209,1.7224,1.7226,1.7203,1.7243,1.7253,1.7322,1.7366,1.7284,1.7289,1.7507,1.7511,1.7516,1.7574,0,0,0,0,0,0,1.7059,1.7076,1.711,1.7135,1.715,1.7248,1.7192,1.7193,1.7218,1.7213,1.7242,1.7244,1.7241,1.7315,1.7328,1.7372,1.7293,1.7503,1.7509,1.7514,1.7568,1.758,1.759,0,0,0,0,0,1.7054,1.7125,1.7112,1.7126,1.7193,1.7251,1.7259,1.7254,1.7222,1.7255,1.7265,1.7243,1.7359,1.7322,1.7336,1.7383,1.75,1.7507,1.7514,1.7563,1.7578,1.759,0,0,0,0,0,0,1.7105,1.7128,1.7114,1.7195,1.7221,1.7243,1.7286,1.727,1.7306,1.7299,1.7291,1.7298,1.7371,1.7384,1.7342,1.7469,1.7425,1.7435,1.7458,1.7471,1.7482,1.7477,1.7297,0,0,0,0,0,1.7126,1.7171,1.7188,1.7258,1.7272,1.7277,1.7302,1.7295,1.7322,1.7333,1.7348,1.7375,1.7417,1.7445,1.7485,1.757,1.7575,1.7609,1.762,1.7629,1.7637,1.7681,1.7696,1.754,1.754,1.754,0,0,1.7169,1.7187,1.7216,1.7269,1.7288,1.7334,1.7286,1.7338,1.7371,1.7341,1.7407,1.7418,1.7448,1.7525,1.756,1.7538,1.7681,1.7637,1.7644,1.7648,1.769,1.7704,1.7717,1.7544,1.7544,1.7543,0,0,1.7271,1.729,1.7349,1.7369,1.7399,1.7401,1.7415,1.744,1.7446,1.7512,1.7489,1.753,1.7603,1.7624,1.7645,1.7753,1.7734,1.7767,1.7824,1.7867,1.7879,1.789,1.7927,1.794,1.7775,1.7775,1.7775,0,1.7322,1.739,1.7382,1.7434,1.7458,1.7431,1.749,1.751,1.7552,1.7568,1.7543,1.7633,1.7651,1.7732,1.7758,1.7776,1.7791,1.7763,1.7878,1.7888,1.7898,1.7934,1.7948,1.7779,1.7779,1.7778,1.7778,0,1.7449,1.7497,1.7541,1.758,1.7609,1.7665,1.7665,1.7694,1.7685,1.769,1.7757,1.7777,1.782,1.7839,1.7831,1.7918,1.7903,1.7878,1.7833,1.7917,1.795,1.7963,1.7784,1.7783,1.7782,1.7781,0,0,1.7586,1.7619,1.7635,1.7651,1.7681,1.7718,1.7772,1.7813,1.7837,1.7867,1.7911,1.7973,1.7949,1.7972,1.7966,1.8004,1.8086,1.7974,1.7975,1.7993,1.8182,1.8199,1.8215,1.8074,1.8076,1.8078,1.8179,0,1.7688,1.7782,1.7776,1.7864,1.7906,1.7881,1.7928,1.7951,1.7957,1.7994,1.8001,1.8044,1.801,1.8024,1.806,1.8069,1.8124,1.8061,1.8114,1.8116,1.8106,1.8233,1.8252,1.8346,1.8192,1.8194,1.8195,0,1.7821,1.7853,1.7945,1.7966,1.7984,1.8026,1.8061,1.8098,1.8123,1.8124,1.8149,1.8137,1.819,1.8145,1.8218,1.8176,1.8197,1.8204,1.8208,1.8212,1.816,1.8239,1.8376,1.8389,1.8216,1.8214,1.8213,0,1.7909,1.7975,1.8038,1.8053,1.808,1.811,1.8123,1.8145,1.8169,1.8201,1.8216,1.8254,1.8275,1.8304,1.8301,1.8269,1.8376,1.833,1.8378,1.8378,1.8401,1.8399,1.8542,1.8417,1.8416,1.8416,1.8416,0,1.8023,1.808,1.8078,1.8117,1.8179,1.8171,1.8233,1.8243,1.8262,1.8302,1.8283,1.832,1.8315,1.8353,1.8351,1.8411,1.8421,1.8423,1.8422,1.8425,1.8424,1.8438,1.8431,1.842,1.8419,1.8418,1.8418,0,1.8132,1.8133,1.82,1.8219,1.8226,1.8271,1.8287,1.8323,1.8327,1.8377,1.8389,1.8395,1.8438,1.8438,1.8488,1.8487,1.856,1.8552,1.8551,1.8549,1.8596,1.8591,1.8751,1.8771,1.8634,1.8636,1.8637,0,1.8205,1.8248,1.8271,1.8296,1.831,1.835,1.8374,1.8368,1.8394,1.8425,1.8457,1.8498,1.8531,1.8601,1.8609,1.8647,1.8639,1.8692,1.8644,1.8645,1.8638,1.8635,1.8638,1.8702,1.8703,1.8704,1.8705,0,1.8332,1.833,1.8366,1.8401,1.843,1.8458,1.8483,1.8505,1.8501,1.8531,1.8574,1.8599,1.8649,1.869,1.8725,1.8738,1.8721,1.872,1.8733,1.8735,1.8733,1.8733,1.8575,1.8717,1.8716,1.8715,1.8714,1.8714,1.8424,1.846,1.8482,1.8522,1.854,1.8564,1.8598,1.8605,1.8641,1.868,1.8675,1.8722,1.8745,1.8791,1.8807,1.8844,1.8825,1.8844,1.8849,1.8853,1.8857,1.8727,1.8851,1.885,1.885,1.885,1.885,0,1.855,1.8562,1.8598,1.8634,1.8665,1.8645,1.8672,1.8699,1.8741,1.8763,1.8795,1.8844,1.8883,1.8894,1.8931,1.8959,1.8952,1.8969,1.8966,1.8969,1.8873,1.8857,1.8974,1.8973,1.8973,1.8973,1.8973,1.8973,1.8618,1.8678,1.8678,1.8746,1.8758,1.8804,1.8821,1.8842,1.8859,1.8914,1.8946,1.8953,1.897,1.9009,1.9043,1.9045,1.9059,1.9079,1.9078,1.8988,1.8976,1.8964,1.8949,1.9083,1.9083,1.9171,1.9172,1.9172]},{"header":{"parameterUnit":"m.s-1","parameterCategory":1,"la1":30.2991,"la2":30.254,"lo1":-89.0895,"lo2":-89.0444,"dy":0.0017,"dx":0.0017,"nx":28,"ny":28,"refTime":"2023-08-18T09:00:00:Z","depth":0,"parameterNumber":3,"parameterNumberName":"V-component_of_WINDS"},"data":[0,0,0,0,0,0,0,0,0,0,0,0,0,0,0,0,0,0,0,0,0,0,0,0,0,0,0,0,0,0,0,0,0,0,0,0,0,0,0,0,0,0,0,0,0,0,0,0,0,0,0,0,0,0,0,0,0,0,5.3038,5.3038,0,5.303,5.303,5.303,5.2922,5.292,5.2917,5.2914,5.2906,5.2909,5.2911,0,0,0,0,0,0,0,0,0,0,0,0,0,5.2959,5.2961,5.3038,5.3038,5.3038,5.303,5.303,5.303,5.2923,5.292,5.2916,5.2913,5.2906,5.2908,5.2911,0,0,0,0,0,0,0,0,0,0,0,0,0,5.2977,5.2962,5.3038,5.2983,5.2978,5.303,5.303,5.303,5.2924,5.292,5.2915,5.2912,5.2905,5.2908,5.2911,5.3015,0,0,5.2922,5.2924,0,0,0,0,0,0,0,0,5.2976,5.298,5.2991,5.2987,5.2982,5.2973,5.2999,5.3025,5.2925,5.2944,5.2914,5.291,5.2932,5.2933,5.294,5.3014,5.3014,5.2922,5.2924,5.2926,5.2927,0,0,0,0,0,0,0,5.2975,5.2979,5.3035,5.2992,5.2986,5.2959,5.2957,5.3003,5.2961,5.2942,5.2935,5.2935,5.2928,5.2937,5.2939,5.3014,5.2922,5.2925,5.2927,5.2929,5.317,5.3175,0,0,0,0,0,0,5.2981,5.2979,5.3035,5.3034,5.2969,5.2964,5.2961,5.298,5.296,5.2953,5.2939,5.293,5.2933,5.2935,5.2939,5.3057,5.2926,5.2929,5.2931,5.3166,5.3171,5.3176,0,0,0,0,0,0,5.298,5.2987,5.3035,5.3005,5.3009,5.2969,5.2991,5.2982,5.2991,5.2957,5.2949,5.2956,5.293,5.2934,5.2996,5.3055,5.2931,5.2934,5.3161,5.3168,5.3174,5.3295,0,0,0,0,0,0,5.2978,5.2987,5.3026,5.3006,5.3011,5.3094,5.2995,5.2985,5.2997,5.2986,5.2971,5.2965,5.2927,5.2992,5.3,5.3057,5.2937,5.3156,5.3164,5.3172,5.3285,5.3305,5.3321,0,0,0,0,0,5.2976,5.3061,5.3029,5.3036,5.3059,5.3097,5.31,5.3055,5.3002,5.3041,5.3019,5.2965,5.3048,5.2999,5.3007,5.3067,5.3152,5.3162,5.3171,5.3277,5.3301,5.3321,0,0,0,0,0,0,5.3089,5.3057,5.3021,5.3103,5.3104,5.3079,5.3126,5.3081,5.3097,5.3086,5.3029,5.3027,5.3098,5.3089,5.3035,5.3165,5.309,5.3102,5.3168,5.319,5.3208,5.3208,5.294,0,0,0,0,0,5.3124,5.3158,5.3128,5.3203,5.3205,5.3166,5.3181,5.3146,5.3145,5.3144,5.3127,5.3128,5.3153,5.3171,5.3193,5.3284,5.3279,5.3329,5.3347,5.3362,5.3372,5.3418,5.344,5.3208,5.3208,5.3208,0,0,5.3195,5.3182,5.3207,5.3225,5.3222,5.3258,5.3167,5.3209,5.3235,5.3151,5.3208,5.3196,5.3193,5.3269,5.3302,5.3264,5.3435,5.3374,5.3386,5.3389,5.3431,5.3453,5.3472,5.3215,5.3213,5.3212,0,0,5.3344,5.3338,5.3399,5.3397,5.3392,5.3366,5.3381,5.3363,5.3351,5.3408,5.3346,5.3376,5.3422,5.3421,5.3427,5.3576,5.3526,5.3584,5.3677,5.3723,5.3741,5.3757,5.3808,5.3828,5.3595,5.3596,5.3596,0,5.3433,5.3485,5.3436,5.3482,5.3491,5.3417,5.3477,5.3478,5.3481,5.3489,5.3447,5.3502,5.3494,5.3569,5.3605,5.3613,5.3628,5.3585,5.3742,5.3758,5.3772,5.382,5.384,5.3603,5.3602,5.3601,5.36,0,5.3594,5.3631,5.3681,5.3685,5.37,5.3754,5.3712,5.3734,5.3698,5.3676,5.3734,5.3723,5.3741,5.3756,5.3722,5.3826,5.3802,5.3752,5.3675,5.3802,5.3846,5.3865,5.3613,5.361,5.3608,5.3606,0,0,5.3813,5.3789,5.3808,5.3809,5.3799,5.3826,5.3876,5.3893,5.3912,5.3917,5.3956,5.3997,5.395,5.3957,5.3922,5.3962,5.4079,5.3906,5.3905,5.3937,5.4191,5.4228,5.4251,5.4046,5.405,5.4052,5.4191,0,5.3955,5.4038,5.3995,5.4084,5.4116,5.4046,5.4089,5.4088,5.4069,5.4093,5.4072,5.4101,5.4038,5.4041,5.4078,5.4057,5.4128,5.4046,5.4082,5.4083,5.4083,5.4274,5.4313,5.4444,5.4208,5.4211,5.4213,0,5.4131,5.4143,5.4235,5.4217,5.4229,5.4269,5.428,5.4305,5.4302,5.4285,5.4293,5.4248,5.4295,5.4221,5.4284,5.423,5.4242,5.4234,5.4238,5.4238,5.4155,5.4278,5.4485,5.4505,5.4241,5.4238,5.4236,0,5.4279,5.4318,5.4378,5.4381,5.4362,5.4391,5.4385,5.4378,5.439,5.4401,5.4409,5.4425,5.4434,5.4447,5.4408,5.4358,5.4477,5.4399,5.4463,5.4465,5.449,5.4489,5.4701,5.4501,5.4501,5.4501,5.45,0,5.4441,5.4499,5.4444,5.448,5.4544,5.4494,5.4558,5.4544,5.4538,5.457,5.4511,5.4543,5.449,5.4517,5.4487,5.4543,5.4548,5.4535,5.4526,5.4539,5.4541,5.4545,5.4535,5.4506,5.4505,5.4504,5.4503,0,5.4617,5.4582,5.4642,5.462,5.4615,5.4663,5.4643,5.4676,5.4653,5.4695,5.4701,5.4665,5.4693,5.4656,5.4681,5.466,5.4737,5.4715,5.4738,5.4731,5.4797,5.4791,5.5018,5.5045,5.483,5.4832,5.4834,0,5.4721,5.4764,5.4747,5.4764,5.4761,5.479,5.4802,5.4755,5.4771,5.477,5.4803,5.4826,5.4841,5.4889,5.4865,5.4883,5.486,5.4939,5.4862,5.4874,5.4859,5.4857,5.486,5.4954,5.4956,5.4958,5.496,0,5.491,5.4891,5.4911,5.4926,5.4942,5.4952,5.4956,5.4974,5.4925,5.4945,5.4973,5.4985,5.501,5.5033,5.5045,5.5038,5.4991,5.4985,5.5,5.5013,5.5024,5.5018,5.4779,5.4979,5.4977,5.4976,5.4975,5.4974,5.5052,5.5087,5.5079,5.5104,5.5102,5.5108,5.5137,5.5118,5.514,5.5156,5.5127,5.5162,5.5157,5.5168,5.5166,5.5193,5.5159,5.5182,5.5187,5.5193,5.5203,5.5022,5.5195,5.5194,5.5194,5.5193,5.5193,0,5.5236,5.5228,5.5251,5.526,5.5279,5.5233,5.5236,5.5255,5.5286,5.5286,5.5302,5.5334,5.5356,5.5334,5.5352,5.5377,5.5356,5.5383,5.538,5.5379,5.5233,5.5217,5.54,5.54,5.54,5.54,5.54,5.54,5.5335,5.539,5.537,5.5424,5.5415,5.5449,5.5454,5.5459,5.5458,5.5496,5.5514,5.5499,5.5489,5.5506,5.5524,5.5517,5.5526,5.5561,5.5546,5.541,5.5389,5.537,5.5354,5.5563,5.5564,5.569,5.5691,5.5692]}]]